WX BEACON Weather Reports


time (UTC)temp
F
wind
direction
speed
knots
gust
knots
rain 1hr
in
rain 24hr
in
rain mn
in
humidity
%
barometer
mb
20260506050732 69 355 1.7 9.6 0.00 0.00 0.00 76 1008.1
20260506043732 71 326 3.5 10.4 0.00 0.00 0.00 73 1007.9
20260506040732 71 326 3.5 10.4 0.00 0.00 0.00 73 1007.9
20260506033732 75 308 3.5 10.4 0.00 0.00 0.00 69 1007.1
20260506032731 75 308 3.5 10.4 0.00 0.00 0.00 69 1007.1
20260506031734 75 308 3.5 10.4 0.00 0.00 0.00 69 1007.1
20260506030732 75 308 3.5 10.4 0.00 0.00 0.00 69 1007.1
20260506024733 78 198 1.7 3.5 0.00 0.00 0.00 80 1005.5
20260506023731 78 198 1.7 3.5 0.00 0.00 0.00 80 1005.5
20260506020732 78 198 1.7 3.5 0.00 0.00 0.00 80 1005.5
20260506014731 79 193 5.2 12.2 0.00 0.00 0.00 77 1004.4
20260506010732 79 193 5.2 12.2 0.00 0.00 0.00 77 1004.4
20260506004732 81 180 7.0 13.9 0.00 0.00 0.00 75 1004.2
20260506001732 81 180 7.0 13.9 0.00 0.00 0.00 75 1004.2
20260505234731 84 181 7.0 14.8 0.00 0.00 0.00 71 1003.9
20260505233731 84 181 7.0 14.8 0.00 0.00 0.00 71 1003.9
20260505230731 84 181 7.0 14.8 0.00 0.00 0.00 71 1003.9
20260505223731 87 149 5.2 13.0 0.00 0.00 0.00 66 1003.7
20260505221733 87 149 5.2 13.0 0.00 0.00 0.00 66 1003.7
20260505220731 87 149 5.2 13.0 0.00 0.00 0.00 66 1003.7
20260505213731 88 205 5.2 11.3 0.00 0.00 0.00 63 1004.1
20260505210731 88 205 5.2 11.3 0.00 0.00 0.00 63 1004.1
20260505205731 86 201 7.0 16.5 0.00 0.00 0.00 66 1004.8
20260505203731 86 201 7.0 16.5 0.00 0.00 0.00 66 1004.8
20260505201731 86 201 7.0 16.5 0.00 0.00 0.00 66 1004.8
20260505200731 86 201 7.0 16.5 0.00 0.00 0.00 66 1004.8
20260505195731 82 185 8.7 14.8 0.00 0.00 0.00 69 1005.2
20260505194732 82 185 8.7 14.8 0.00 0.00 0.00 69 1005.2
20260505190731 82 185 8.7 14.8 0.00 0.00 0.00 69 1005.2
20260505185731 79 191 9.6 16.5 0.00 0.00 0.00 75 1005.4
20260505184732 79 191 9.6 16.5 0.00 0.00 0.00 75 1005.4
20260505181732 79 191 9.6 16.5 0.00 0.00 0.00 75 1005.4
20260505170732 79 191 9.6 16.5 0.00 0.00 0.00 75 1005.4
20260505161732 75 184 10.4 20.0 0.00 0.00 0.00 78 1005.4
20260505160732 75 184 10.4 20.0 0.00 0.00 0.00 78 1005.4
20260505151732 73 196 9.6 16.5 0.00 0.00 0.00 81 1005.3
20260505150731 73 196 9.6 16.5 0.00 0.00 0.00 81 1005.3
20260505124731 70 175 7.0 18.2 0.00 0.00 0.00 88 1004.1
20260505123731 70 175 7.0 18.2 0.00 0.00 0.00 88 1004.1
20260505122732 70 175 7.0 18.2 0.00 0.00 0.00 88 1004.1
20260505121733 70 175 7.0 18.2 0.00 0.00 0.00 88 1004.1
20260505120731 70 175 7.0 18.2 0.00 0.00 0.00 88 1004.1
20260505114732 70 165 8.7 18.2 0.00 0.00 0.00 88 1003.8
20260505110731 70 165 8.7 18.2 0.00 0.00 0.00 88 1003.8
20260505101732 70 185 7.0 18.2 0.00 0.00 0.00 87 1003.9
20260505100731 70 185 7.0 18.2 0.00 0.00 0.00 87 1003.9
20260505095732 70 195 7.0 14.8 0.00 0.00 0.00 87 1004.5
20260505094731 70 195 7.0 14.8 0.00 0.00 0.00 87 1004.5
20260505093731 70 195 7.0 14.8 0.00 0.00 0.00 87 1004.5
20260505092731 70 195 7.0 14.8 0.00 0.00 0.00 87 1004.5
20260505091731 70 195 7.0 14.8 0.00 0.00 0.00 87 1004.5
20260505090731 70 195 7.0 14.8 0.00 0.00 0.00 87 1004.5
20260505085731 69 199 8.7 20.0 0.00 0.00 0.00 87 1004.7
20260505083731 69 199 8.7 20.0 0.00 0.00 0.00 87 1004.7
20260505082731 69 199 8.7 20.0 0.00 0.00 0.00 87 1004.7
20260505081731 69 199 8.7 20.0 0.00 0.00 0.00 87 1004.7
20260505075731 70 197 9.6 18.2 0.00 0.00 0.00 85 1005.5
20260505073731 70 197 9.6 18.2 0.00 0.00 0.00 85 1005.5
20260505072731 70 197 9.6 18.2 0.00 0.00 0.00 85 1005.5
20260505071731 70 197 9.6 18.2 0.00 0.00 0.00 85 1005.5
20260505070731 70 197 9.6 18.2 0.00 0.00 0.00 85 1005.5
20260505065732 71 208 8.7 18.2 0.00 0.00 0.00 82 1005.8
20260505064731 71 208 8.7 18.2 0.00 0.00 0.00 82 1005.8
20260505063731 71 208 8.7 18.2 0.00 0.00 0.00 82 1005.8
20260505061732 71 208 8.7 18.2 0.00 0.00 0.00 82 1005.8
20260505055733 72 177 7.0 16.5 0.00 0.00 0.00 80 1006.3